Tracking 17844 objects as of 27-August-2016
HD Live streaming from Space Station
objects crossing your sky now

TERRIERS

Track TERRIERS now!
10-day predictions
TERRIERS is classified as:


NORAD ID: 25735
Int'l Code: 1999-026A
Perigee: 438.8 km
Apogee: 446.2 km
Inclination: 97.2 °
Period: 93.3 minutes
Semi major axis: 6813 km
RCS: 0.4968 m2 (medium)
Launch date: May 18, 1999
Source: United States (US)
Launch site: Pegasus launched from Western Range Air Space (WRAS)
Your satellite tracking list
Your tracking list is empty





NASA's NSSDC Master Catalog

Two Line Element Set (TLE):
1 25735U 99026A   16239.94958631 +.00002221 +00000-0 +51151-4 0  9998
2 25735 097.1540 043.7553 0005421 026.6331 131.8291 15.43659032960806
Source of the keplerian elements: AFSPC

N2YO: 520